| time (UTC) | temp F | wind direction | speed MPH | gust MPH | rain 1hr in | rain 24hr in | rain mn in | humidity % | barometer mb |
| 20260901185529 | 71 | 50 | 1.0 | 3.0 | 0.00 | 0.00 | 0.00 | 78 | 1017.1 |
| 20260901185029 | 71 | 50 | 1.0 | 3.0 | 0.00 | 0.00 | 0.00 | 77 | 1017.0 |
| 20260901184514 | 71 | 50 | 0.0 | 2.0 | 0.00 | 0.00 | 0.00 | 77 | 1017.0 |
| 20260901184016 | 71 | 50 | 0.0 | 1.0 | 0.00 | 0.00 | 0.00 | 77 | 1016.9 |
| 20260901183542 | 71 | 50 | 1.0 | 2.0 | 0.00 | 0.00 | 0.00 | 76 | 1016.9 |
| 20260901183019 | 72 | 50 | 0.0 | 2.0 | 0.00 | 0.00 | 0.00 | 76 | 1016.9 |
| 20260901182543 | 72 | 50 | 0.0 | 2.0 | 0.00 | 0.00 | 0.00 | 76 | 1016.8 |
| 20260901182022 | 72 | 50 | 1.0 | 1.0 | 0.00 | 0.00 | 0.00 | 76 | 1016.8 |
| 20260901181525 | 73 | 50 | 0.0 | 2.0 | 0.00 | 0.00 | 0.00 | 75 | 1016.7 |
| 20260901181025 | 73 | 50 | 1.0 | 2.0 | 0.00 | 0.00 | 0.00 | 75 | 1016.7 |
| 20260901180529 | 73 | 50 | 1.0 | 2.0 | 0.00 | 0.00 | 0.00 | 74 | 1016.6 |
| 20260901180023 | 74 | 50 | 0.0 | 1.0 | 0.00 | 0.00 | 0.00 | 73 | 1016.5 |
| 20260901175528 | 74 | 50 | 0.0 | 1.0 | 0.00 | 0.00 | 0.00 | 72 | 1016.5 |
| 20260901175051 | 74 | 50 | 0.0 | 1.0 | 0.00 | 0.00 | 0.00 | 72 | 1016.4 |
| 20260901174513 | 74 | 50 | 0.0 | 1.0 | 0.00 | 0.00 | 0.00 | 71 | 1016.4 |
| 20260901174016 | 75 | 50 | 0.0 | 0.0 | 0.00 | 0.00 | 0.00 | 71 | 1016.4 |
| 20260901173517 | 75 | 50 | 0.0 | 0.0 | 0.00 | 0.00 | 0.00 | 70 | 1016.3 |
| 20260901173029 | 75 | 50 | 0.0 | 0.0 | 0.00 | 0.00 | 0.00 | 71 | 1016.2 |
| 20260901172515 | 76 | 50 | 0.0 | 0.0 | 0.00 | 0.00 | 0.00 | 70 | 1016.2 |
| 20260901172038 | 76 | 50 | 0.0 | 1.0 | 0.00 | 0.00 | 0.00 | 70 | 1016.2 |
| 20260901171524 | 76 | 50 | 0.0 | 1.0 | 0.00 | 0.00 | 0.00 | 70 | 1016.2 |
| 20260901171023 | 77 | 50 | 1.0 | 1.0 | 0.00 | 0.00 | 0.00 | 69 | 1016.3 |
| 20260901170527 | 77 | 50 | 0.0 | 1.0 | 0.00 | 0.00 | 0.00 | 69 | 1016.2 |
| 20260901170019 | 78 | 50 | 0.0 | 2.0 | 0.00 | 0.00 | 0.00 | 66 | 1016.2 |
| 20260901165526 | 78 | 50 | 1.0 | 2.0 | 0.00 | 0.00 | 0.00 | 67 | 1016.2 |
| 20260901165028 | 79 | 50 | 0.0 | 2.0 | 0.00 | 0.00 | 0.00 | 66 | 1016.3 |
| 20260901164511 | 79 | 50 | 0.0 | 3.0 | 0.00 | 0.00 | 0.00 | 63 | 1016.2 |
| 20260901164032 | 79 | 50 | 1.0 | 3.0 | 0.00 | 0.00 | 0.00 | 63 | 1016.3 |
| 20260901163512 | 80 | 51 | 1.0 | 2.0 | 0.00 | 0.00 | 0.00 | 61 | 1016.2 |
| 20260901163026 | 80 | 52 | 0.0 | 2.0 | 0.00 | 0.00 | 0.00 | 58 | 1016.3 |
| 20260901162511 | 80 | 52 | 1.0 | 2.0 | 0.00 | 0.00 | 0.00 | 61 | 1016.3 |
| 20260901162011 | 80 | 53 | 1.0 | 2.0 | 0.00 | 0.00 | 0.00 | 63 | 1016.2 |
| 20260901161516 | 80 | 53 | 0.0 | 3.0 | 0.00 | 0.00 | 0.00 | 61 | 1016.2 |
| 20260901161021 | 81 | 53 | 1.0 | 3.0 | 0.00 | 0.00 | 0.00 | 61 | 1016.2 |
| 20260901160526 | 81 | 53 | 1.0 | 2.0 | 0.00 | 0.00 | 0.00 | 59 | 1016.2 |
| 20260901160021 | 82 | 53 | 1.0 | 2.0 | 0.00 | 0.00 | 0.00 | 56 | 1016.2 |
| 20260901155522 | 82 | 52 | 1.0 | 2.0 | 0.00 | 0.00 | 0.00 | 58 | 1016.3 |
| 20260901155024 | 83 | 52 | 1.0 | 2.0 | 0.00 | 0.00 | 0.00 | 55 | 1016.3 |
| 20260901154527 | 83 | 52 | 1.0 | 2.0 | 0.00 | 0.00 | 0.00 | 52 | 1016.4 |
| 20260901154028 | 84 | 52 | 1.0 | 2.0 | 0.00 | 0.00 | 0.00 | 52 | 1016.4 |
| 20260901153514 | 84 | 53 | 1.0 | 2.0 | 0.00 | 0.00 | 0.00 | 52 | 1016.4 |
| 20260901153027 | 85 | 53 | 1.0 | 2.0 | 0.00 | 0.00 | 0.00 | 46 | 1016.5 |
| 20260901152551 | 86 | 54 | 1.0 | 2.0 | 0.00 | 0.00 | 0.00 | 49 | 1016.5 |
| 20260901152030 | 86 | 55 | 1.0 | 3.0 | 0.00 | 0.00 | 0.00 | 50 | 1016.5 |
| 20260901151514 | 86 | 55 | 1.0 | 5.0 | 0.00 | 0.00 | 0.00 | 50 | 1016.5 |
| 20260901151014 | 87 | 58 | 2.0 | 5.0 | 0.00 | 0.00 | 0.00 | 49 | 1016.5 |
| 20260901150521 | 87 | 71 | 1.0 | 2.0 | 0.00 | 0.00 | 0.00 | 47 | 1016.5 |
| 20260901150013 | 87 | 71 | 0.0 | 2.0 | 0.00 | 0.00 | 0.00 | 47 | 1016.6 |
| 20260901145518 | 88 | 71 | 1.0 | 2.0 | 0.00 | 0.00 | 0.00 | 47 | 1016.6 |
| 20260901145038 | 88 | 71 | 1.0 | 4.0 | 0.00 | 0.00 | 0.00 | 47 | 1016.7 |
| 20260901144522 | 89 | 71 | 1.0 | 4.0 | 0.00 | 0.00 | 0.00 | 47 | 1016.7 |
| 20260901144023 | 89 | 70 | 3.0 | 5.0 | 0.00 | 0.00 | 0.00 | 40 | 1016.7 |
| 20260901143527 | 89 | 62 | 3.0 | 6.0 | 0.00 | 0.00 | 0.00 | 43 | 1016.7 |
| 20260901143017 | 89 | 64 | 3.0 | 6.0 | 0.00 | 0.00 | 0.00 | 41 | 1016.7 |
| 20260901142520 | 89 | 57 | 1.0 | 8.0 | 0.00 | 0.00 | 0.00 | 43 | 1016.7 |
| 20260901142021 | 89 | 79 | 4.0 | 8.0 | 0.00 | 0.00 | 0.00 | 40 | 1016.7 |
| 20260901141524 | 89 | 68 | 4.0 | 6.0 | 0.00 | 0.00 | 0.00 | 40 | 1016.8 |
| 20260901141025 | 90 | 56 | 3.0 | 5.0 | 0.00 | 0.00 | 0.00 | 41 | 1016.8 |
| 20260901140529 | 89 | 65 | 1.0 | 9.0 | 0.00 | 0.00 | 0.00 | 41 | 1016.7 |
| 20260901140024 | 89 | 63 | 2.0 | 9.0 | 0.00 | 0.00 | 0.00 | 41 | 1016.7 |
| 20260901135513 | 89 | 57 | 2.0 | 6.0 | 0.00 | 0.00 | 0.00 | 41 | 1016.7 |
| 20260901135015 | 89 | 56 | 3.0 | 7.0 | 0.00 | 0.00 | 0.00 | 43 | 1016.8 |
| 20260901134519 | 88 | 57 | 5.0 | 7.0 | 0.00 | 0.00 | 0.00 | 41 | 1016.9 |
| 20260901134019 | 88 | 59 | 3.0 | 6.0 | 0.00 | 0.00 | 0.00 | 43 | 1016.9 |
| 20260901133545 | 88 | 51 | 2.0 | 4.0 | 0.00 | 0.00 | 0.00 | 45 | 1016.9 |
| 20260901133016 | 88 | 52 | 1.0 | 7.0 | 0.00 | 0.00 | 0.00 | 44 | 1016.9 |
| 20260901132519 | 88 | 52 | 1.0 | 10.0 | 0.00 | 0.00 | 0.00 | 43 | 1016.9 |
| 20260901132020 | 88 | 57 | 5.0 | 10.0 | 0.00 | 0.00 | 0.00 | 43 | 1017.0 |
| 20260901131522 | 88 | 60 | 4.0 | 11.0 | 0.00 | 0.00 | 0.00 | 41 | 1017.1 |
| 20260901131023 | 88 | 69 | 4.0 | 11.0 | 0.00 | 0.00 | 0.00 | 41 | 1017.1 |
| 20260901130549 | 88 | 51 | 5.0 | 12.0 | 0.00 | 0.00 | 0.00 | 40 | 1017.2 |
| 20260901130023 | 88 | 51 | 3.0 | 12.0 | 0.00 | 0.00 | 0.00 | 41 | 1017.3 |
| 20260901125546 | 88 | 31 | 3.0 | 7.0 | 0.00 | 0.00 | 0.00 | 41 | 1017.3 |
| 20260901125027 | 88 | 40 | 3.0 | 14.0 | 0.00 | 0.00 | 0.00 | 42 | 1017.3 |
| 20260901124531 | 88 | 66 | 5.0 | 14.0 | 0.00 | 0.00 | 0.00 | 41 | 1017.4 |
| 20260901124031 | 88 | 35 | 3.0 | 13.0 | 0.00 | 0.00 | 0.00 | 41 | 1017.4 |
| 20260901123519 | 88 | 66 | 6.0 | 11.0 | 0.00 | 0.00 | 0.00 | 41 | 1017.5 |
| 20260901123044 | 87 | 61 | 6.0 | 12.0 | 0.00 | 0.00 | 0.00 | 40 | 1017.6 |
| 20260901122547 | 87 | 59 | 3.0 | 12.0 | 0.00 | 0.00 | 0.00 | 42 | 1017.6 |
| 20260901122029 | 87 | 68 | 4.0 | 12.0 | 0.00 | 0.00 | 0.00 | 40 | 1017.6 |
| 20260901121535 | 87 | 53 | 8.0 | 12.0 | 0.00 | 0.00 | 0.00 | 39 | 1017.7 |
| 20260901121014 | 88 | 59 | 3.0 | 14.0 | 0.00 | 0.00 | 0.00 | 41 | 1017.6 |
| 20260901120518 | 88 | 41 | 5.0 | 14.0 | 0.00 | 0.00 | 0.00 | 40 | 1017.6 |
| 20260901120012 | 87 | 50 | 4.0 | 12.0 | 0.00 | 0.00 | 0.00 | 40 | 1017.8 |
| 20260901115518 | 87 | 55 | 5.0 | 12.0 | 0.00 | 0.00 | 0.00 | 40 | 1017.8 |
| 20260901115018 | 87 | 44 | 4.0 | 11.0 | 0.00 | 0.00 | 0.00 | 42 | 1017.7 |
| 20260901114520 | 87 | 49 | 4.0 | 12.0 | 0.00 | 0.00 | 0.00 | 41 | 1017.9 |
| 20260901114021 | 87 | 58 | 5.0 | 12.0 | 0.00 | 0.00 | 0.00 | 41 | 1017.8 |
| 20260901113525 | 87 | 59 | 6.0 | 11.0 | 0.00 | 0.00 | 0.00 | 41 | 1017.9 |
| 20260901113016 | 87 | 45 | 6.0 | 10.0 | 0.00 | 0.00 | 0.00 | 43 | 1017.8 |
| 20260901112520 | 86 | 34 | 4.0 | 13.0 | 0.00 | 0.00 | 0.00 | 41 | 1017.9 |
| 20260901112020 | 87 | 63 | 8.0 | 13.0 | 0.00 | 0.00 | 0.00 | 42 | 1017.9 |
| 20260901111528 | 86 | 42 | 4.0 | 12.0 | 0.00 | 0.00 | 0.00 | 43 | 1017.9 |
| 20260901111030 | 86 | 58 | 2.0 | 13.0 | 0.00 | 0.00 | 0.00 | 44 | 1017.9 |
| 20260901110516 | 86 | 43 | 5.0 | 13.0 | 0.00 | 0.00 | 0.00 | 43 | 1018.0 |
| 20260901110030 | 86 | 51 | 5.0 | 13.0 | 0.00 | 0.00 | 0.00 | 46 | 1018.0 |
| 20260901105535 | 86 | 77 | 4.0 | 10.0 | 0.00 | 0.00 | 0.00 | 44 | 1018.1 |
| 20260901105015 | 85 | 38 | 4.0 | 12.0 | 0.00 | 0.00 | 0.00 | 45 | 1018.1 |
| 20260901104519 | 85 | 79 | 2.0 | 12.0 | 0.00 | 0.00 | 0.00 | 45 | 1018.1 |
| 20260901104039 | 86 | 69 | 4.0 | 10.0 | 0.00 | 0.00 | 0.00 | 45 | 1018.2 |
| 20260901103542 | 86 | 61 | 5.0 | 12.0 | 0.00 | 0.00 | 0.00 | 46 | 1018.2 |
| 20260901103014 | 85 | 54 | 5.0 | 12.0 | 0.00 | 0.00 | 0.00 | 44 | 1018.4 |
| 20260901102519 | 85 | 55 | 4.0 | 11.0 | 0.00 | 0.00 | 0.00 | 45 | 1018.4 |
| 20260901102020 | 85 | 63 | 5.0 | 11.0 | 0.00 | 0.00 | 0.00 | 45 | 1018.3 |
| 20260901101524 | 85 | 52 | 5.0 | 10.0 | 0.00 | 0.00 | 0.00 | 45 | 1018.4 |
| 20260901101024 | 85 | 55 | 5.0 | 11.0 | 0.00 | 0.00 | 0.00 | 46 | 1018.4 |
| 20260901100527 | 85 | 38 | 5.0 | 11.0 | 0.00 | 0.00 | 0.00 | 46 | 1018.4 |
| 20260901100019 | 85 | 71 | 4.0 | 11.0 | 0.00 | 0.00 | 0.00 | 45 | 1018.5 |
| 20260901095526 | 85 | 38 | 6.0 | 11.0 | 0.00 | 0.00 | 0.00 | 46 | 1018.5 |
| 20260901095028 | 85 | 48 | 3.0 | 11.0 | 0.00 | 0.00 | 0.00 | 45 | 1018.6 |
| 20260901094512 | 85 | 63 | 5.0 | 12.0 | 0.00 | 0.00 | 0.00 | 44 | 1018.7 |
| 20260901094012 | 84 | 89 | 1.0 | 10.0 | 0.00 | 0.00 | 0.00 | 46 | 1018.6 |
| 20260901093518 | 84 | 74 | 3.0 | 10.0 | 0.00 | 0.00 | 0.00 | 47 | 1018.7 |
| 20260901093051 | 84 | 70 | 3.0 | 8.0 | 0.00 | 0.00 | 0.00 | 48 | 1018.8 |
| 20260901092514 | 83 | 85 | 3.0 | 13.0 | 0.00 | 0.00 | 0.00 | 49 | 1018.8 |
| 20260901092015 | 83 | 69 | 5.0 | 13.0 | 0.00 | 0.00 | 0.00 | 49 | 1018.8 |
| 20260901091538 | 82 | 57 | 6.0 | 11.0 | 0.00 | 0.00 | 0.00 | 49 | 1018.9 |
| 20260901091016 | 81 | 64 | 3.0 | 11.0 | 0.00 | 0.00 | 0.00 | 51 | 1018.7 |
| 20260901090541 | 81 | 42 | 2.0 | 11.0 | 0.00 | 0.00 | 0.00 | 51 | 1018.8 |
| 20260901090052 | 81 | 67 | 5.0 | 10.0 | 0.00 | 0.00 | 0.00 | 52 | 1018.8 |
| 20260901085516 | 81 | 58 | 3.0 | 11.0 | 0.00 | 0.00 | 0.00 | 52 | 1018.8 |
| 20260901085014 | 81 | 44 | 4.0 | 11.0 | 0.00 | 0.00 | 0.00 | 52 | 1018.8 |
| 20260901084517 | 81 | 53 | 3.0 | 11.0 | 0.00 | 0.00 | 0.00 | 52 | 1018.7 |
| 20260901084018 | 80 | 77 | 6.0 | 11.0 | 0.00 | 0.00 | 0.00 | 52 | 1018.8 |
| 20260901083521 | 80 | 50 | 2.0 | 9.0 | 0.00 | 0.00 | 0.00 | 54 | 1018.7 |
| 20260901083018 | 80 | 58 | 3.0 | 9.0 | 0.00 | 0.00 | 0.00 | 52 | 1018.7 |
| 20260901082521 | 80 | 42 | 2.0 | 9.0 | 0.00 | 0.00 | 0.00 | 52 | 1018.7 |
| 20260901082043 | 80 | 44 | 4.0 | 10.0 | 0.00 | 0.00 | 0.00 | 53 | 1018.5 |
| 20260901081527 | 80 | 67 | 4.0 | 11.0 | 0.00 | 0.00 | 0.00 | 53 | 1018.5 |
| 20260901081051 | 80 | 40 | 5.0 | 11.0 | 0.00 | 0.00 | 0.00 | 51 | 1018.5 |
| 20260901080514 | 79 | 48 | 2.0 | 5.0 | 0.00 | 0.00 | 0.00 | 53 | 1018.6 |
| 20260901080028 | 79 | 43 | 1.0 | 5.0 | 0.00 | 0.00 | 0.00 | 53 | 1018.4 |
| 20260901075511 | 79 | 42 | 1.0 | 9.0 | 0.00 | 0.00 | 0.00 | 52 | 1018.5 |
| 20260901075051 | 79 | 42 | 4.0 | 9.0 | 0.00 | 0.00 | 0.00 | 52 | 1018.4 |
| 20260901074531 | 79 | 31 | 2.0 | 6.0 | 0.00 | 0.00 | 0.00 | 54 | 1018.3 |
| 20260901074031 | 79 | 28 | 2.0 | 5.0 | 0.00 | 0.00 | 0.00 | 52 | 1018.3 |
| 20260901073515 | 79 | 40 | 2.0 | 9.0 | 0.00 | 0.00 | 0.00 | 51 | 1018.3 |
| 20260901073028 | 79 | 54 | 3.0 | 14.0 | 0.00 | 0.00 | 0.00 | 54 | 1018.2 |
| 20260901072551 | 79 | 55 | 7.0 | 14.0 | 0.00 | 0.00 | 0.00 | 52 | 1018.1 |
| 20260901072051 | 77 | 11 | 2.0 | 6.0 | 0.00 | 0.00 | 0.00 | 56 | 1018.2 |
| 20260901071514 | 77 | 11 | 1.0 | 6.0 | 0.00 | 0.00 | 0.00 | 58 | 1018.1 |
| 20260901071016 | 76 | 355 | 1.0 | 8.0 | 0.00 | 0.00 | 0.00 | 61 | 1018.1 |
| 20260901070521 | 76 | 5 | 2.0 | 9.0 | 0.00 | 0.00 | 0.00 | 57 | 1018.1 |
| 20260901070016 | 76 | 300 | 1.0 | 9.0 | 0.00 | 0.00 | 0.00 | 58 | 1018.1 |
| 20260901065520 | 75 | 297 | 2.0 | 7.0 | 0.00 | 0.00 | 0.00 | 58 | 1018.1 |
| 20260901065041 | 76 | 296 | 3.0 | 7.0 | 0.00 | 0.00 | 0.00 | 61 | 1018.1 |
| 20260901064524 | 76 | 272 | 2.0 | 8.0 | 0.00 | 0.00 | 0.00 | 56 | 1018.1 |
| 20260901064024 | 76 | 269 | 1.0 | 8.0 | 0.00 | 0.00 | 0.00 | 57 | 1018.2 |
| 20260901063548 | 76 | 266 | 2.0 | 7.0 | 0.00 | 0.00 | 0.00 | 56 | 1018.0 |
| 20260901063020 | 76 | 263 | 2.0 | 7.0 | 0.00 | 0.00 | 0.00 | 57 | 1018.0 |
| 20260901062546 | 76 | 252 | 2.0 | 8.0 | 0.00 | 0.00 | 0.00 | 60 | 1018.0 |
| 20260901062046 | 77 | 248 | 2.0 | 8.0 | 0.00 | 0.00 | 0.00 | 60 | 1017.9 |
| 20260901061550 | 76 | 242 | 2.0 | 7.0 | 0.00 | 0.00 | 0.00 | 58 | 1018.0 |
| 20260901061032 | 76 | 229 | 2.0 | 6.0 | 0.00 | 0.00 | 0.00 | 57 | 1017.9 |
| 20260901060515 | 76 | 212 | 2.0 | 5.0 | 0.00 | 0.00 | 0.00 | 61 | 1017.9 |
| 20260901060026 | 75 | 213 | 1.0 | 8.0 | 0.00 | 0.00 | 0.00 | 62 | 1017.9 |
| 20260901055529 | 75 | 212 | 1.0 | 8.0 | 0.00 | 0.00 | 0.00 | 60 | 1017.8 |
| 20260901055049 | 75 | 197 | 1.0 | 4.0 | 0.00 | 0.00 | 0.00 | 60 | 1017.8 |
| 20260901054513 | 75 | 197 | 1.0 | 10.0 | 0.00 | 0.00 | 0.00 | 61 | 1017.7 |
| 20260901054015 | 75 | 195 | 2.0 | 10.0 | 0.00 | 0.00 | 0.00 | 62 | 1017.7 |
| 20260901053519 | 75 | 233 | 1.0 | 4.0 | 0.00 | 0.00 | 0.00 | 63 | 1017.5 |
| 20260901053031 | 75 | 233 | 2.0 | 4.0 | 0.00 | 0.00 | 0.00 | 59 | 1017.5 |
| 20260901052518 | 75 | 232 | 2.0 | 4.0 | 0.00 | 0.00 | 0.00 | 59 | 1017.5 |
| 20260901052039 | 75 | 232 | 0.0 | 3.0 | 0.00 | 0.00 | 0.00 | 62 | 1017.4 |
| 20260901051523 | 75 | 232 | 2.0 | 3.0 | 0.00 | 0.00 | 0.00 | 59 | 1017.4 |
| 20260901051023 | 75 | 232 | 1.0 | 4.0 | 0.00 | 0.00 | 0.00 | 62 | 1017.4 |
| 20260901050527 | 75 | 232 | 2.0 | 4.0 | 0.00 | 0.00 | 0.00 | 61 | 1017.3 |
| 20260901050021 | 75 | 231 | 2.0 | 7.0 | 0.00 | 0.00 | 0.00 | 62 | 1017.3 |
| 20260901045526 | 75 | 231 | 1.0 | 7.0 | 0.00 | 0.00 | 0.00 | 60 | 1017.1 |
| 20260901045025 | 74 | 232 | 2.0 | 8.0 | 0.00 | 0.00 | 0.00 | 61 | 1017.1 |
| 20260901044548 | 74 | 231 | 3.0 | 8.0 | 0.00 | 0.00 | 0.00 | 60 | 1017.0 |
| 20260901044027 | 74 | 221 | 1.0 | 9.0 | 0.00 | 0.00 | 0.00 | 64 | 1016.9 |
| 20260901043531 | 73 | 221 | 1.0 | 9.0 | 0.00 | 0.00 | 0.00 | 62 | 1016.9 |
| 20260901043024 | 73 | 213 | 2.0 | 5.0 | 0.00 | 0.00 | 0.00 | 66 | 1016.9 |
| 20260901042528 | 72 | 213 | 1.0 | 6.0 | 0.00 | 0.00 | 0.00 | 67 | 1016.8 |
| 20260901042049 | 72 | 213 | 2.0 | 6.0 | 0.00 | 0.00 | 0.00 | 69 | 1016.7 |
| 20260901041531 | 70 | 209 | 1.0 | 3.0 | 0.00 | 0.00 | 0.00 | 70 | 1016.6 |
| 20260901041015 | 70 | 209 | 1.0 | 5.0 | 0.00 | 0.00 | 0.00 | 77 | 1016.6 |
| 20260901040520 | 69 | 209 | 1.0 | 2.0 | 0.00 | 0.00 | 0.00 | 80 | 1016.5 |
| 20260901040013 | 68 | 209 | 1.0 | 3.0 | 0.00 | 0.00 | 0.00 | 80 | 1016.4 |
| 20260901035516 | 68 | 209 | 1.0 | 3.0 | 0.00 | 0.00 | 0.00 | 86 | 1016.4 |
| 20260901035037 | 69 | 209 | 0.0 | 2.0 | 0.00 | 0.00 | 0.00 | 87 | 1016.4 |
| 20260901034521 | 69 | 209 | 1.0 | 2.0 | 0.00 | 0.00 | 0.00 | 87 | 1016.4 |
| 20260901034020 | 69 | 209 | 0.0 | 1.0 | 0.00 | 0.00 | 0.00 | 87 | 1016.3 |
| 20260901033523 | 69 | 209 | 0.0 | 2.0 | 0.00 | 0.00 | 0.00 | 87 | 1016.4 |
| 20260901033016 | 69 | 209 | 1.0 | 2.0 | 0.00 | 0.00 | 0.00 | 87 | 1016.4 |
| 20260901032520 | 69 | 209 | 0.0 | 1.0 | 0.00 | 0.00 | 0.00 | 87 | 1016.4 |
| 20260901032040 | 69 | 209 | 0.0 | 1.0 | 0.00 | 0.00 | 0.00 | 87 | 1016.3 |
| 20260901031524 | 69 | 209 | 0.0 | 2.0 | 0.00 | 0.00 | 0.00 | 87 | 1016.3 |
| 20260901031046 | 69 | 209 | 1.0 | 2.0 | 0.00 | 0.00 | 0.00 | 87 | 1016.2 |
| 20260901030528 | 69 | 209 | 0.0 | 1.0 | 0.00 | 0.00 | 0.00 | 87 | 1016.1 |
| 20260901030022 | 69 | 209 | 0.0 | 1.0 | 0.00 | 0.00 | 0.00 | 87 | 1016.2 |
| 20260901025525 | 69 | 209 | 0.0 | 2.0 | 0.00 | 0.00 | 0.00 | 87 | 1016.2 |
| 20260901025027 | 69 | 209 | 1.0 | 2.0 | 0.00 | 0.00 | 0.00 | 87 | 1016.2 |
| 20260901024537 | 69 | 209 | 0.0 | 2.0 | 0.00 | 0.00 | 0.00 | 87 | 1016.2 |
| 20260901024017 | 69 | 209 | 1.0 | 2.0 | 0.00 | 0.00 | 0.00 | 87 | 1016.2 |
| 20260901023520 | 69 | 209 | 1.0 | 1.0 | 0.00 | 0.00 | 0.00 | 87 | 1016.1 |
| 20260901023033 | 69 | 209 | 1.0 | 2.0 | 0.00 | 0.00 | 0.00 | 87 | 1016.1 |
| 20260901022517 | 69 | 209 | 0.0 | 2.0 | 0.00 | 0.00 | 0.00 | 87 | 1016.1 |
| 20260901022018 | 69 | 209 | 0.0 | 5.0 | 0.00 | 0.00 | 0.00 | 87 | 1016.1 |
| 20260901021519 | 69 | 209 | 4.0 | 5.0 | 0.00 | 0.00 | 0.00 | 87 | 1016.0 |
| 20260901021019 | 69 | 210 | 1.0 | 3.0 | 0.00 | 0.00 | 0.00 | 87 | 1016.0 |
| 20260901020521 | 69 | 210 | 1.0 | 2.0 | 0.00 | 0.00 | 0.00 | 87 | 1015.9 |
| 20260901020015 | 69 | 210 | 0.0 | 2.0 | 0.00 | 0.00 | 0.00 | 87 | 1015.8 |
| 20260901015517 | 69 | 210 | 1.0 | 2.0 | 0.00 | 0.00 | 0.00 | 87 | 1015.8 |
| 20260901015018 | 69 | 210 | 0.0 | 2.0 | 0.00 | 0.00 | 0.00 | 87 | 1015.9 |
| 20260901014522 | 69 | 210 | 1.0 | 2.0 | 0.00 | 0.00 | 0.00 | 87 | 1015.9 |
| 20260901014039 | 69 | 210 | 1.0 | 2.0 | 0.00 | 0.00 | 0.00 | 87 | 1015.9 |
| 20260901013520 | 69 | 210 | 0.0 | 2.0 | 0.00 | 0.00 | 0.00 | 87 | 1015.9 |
| 20260901013013 | 69 | 210 | 1.0 | 2.0 | 0.00 | 0.00 | 0.00 | 87 | 1016.0 |
| 20260901012517 | 69 | 210 | 0.0 | 1.0 | 0.00 | 0.00 | 0.00 | 86 | 1016.1 |
| 20260901012021 | 69 | 210 | 0.0 | 1.0 | 0.00 | 0.00 | 0.00 | 86 | 1016.3 |
| 20260901011523 | 69 | 210 | 0.0 | 1.0 | 0.00 | 0.00 | 0.00 | 86 | 1016.1 |
| 20260901011043 | 69 | 210 | 0.0 | 1.0 | 0.00 | 0.00 | 0.00 | 87 | 1016.3 |
| 20260901010527 | 70 | 210 | 0.0 | 1.0 | 0.00 | 0.00 | 0.00 | 87 | 1016.3 |
| 20260901010018 | 70 | 210 | 0.0 | 0.0 | 0.00 | 0.00 | 0.00 | 87 | 1016.4 |
| 20260901005542 | 70 | 210 | 0.0 | 1.0 | 0.00 | 0.00 | 0.00 | 87 | 1016.3 |
| 20260901005020 | 70 | 210 | 1.0 | 1.0 | 0.00 | 0.00 | 0.00 | 86 | 1016.3 |
| 20260901004523 | 70 | 210 | 0.0 | 2.0 | 0.00 | 0.00 | 0.00 | 86 | 1016.2 |
| 20260901004024 | 70 | 210 | 1.0 | 2.0 | 0.00 | 0.00 | 0.00 | 86 | 1016.2 |
| 20260901003527 | 70 | 210 | 0.0 | 1.0 | 0.00 | 0.00 | 0.00 | 86 | 1016.2 |
| 20260901003021 | 70 | 210 | 0.0 | 1.0 | 0.00 | 0.00 | 0.00 | 85 | 1016.3 |
| 20260901002524 | 70 | 210 | 0.0 | 1.0 | 0.00 | 0.00 | 0.00 | 85 | 1016.1 |
| 20260901002024 | 70 | 210 | 0.0 | 1.0 | 0.00 | 0.00 | 0.00 | 84 | 1016.1 |
| 20260901001526 | 70 | 210 | 1.0 | 2.0 | 0.00 | 0.00 | 0.00 | 84 | 1016.2 |
| 20260901001025 | 70 | 210 | 0.0 | 2.0 | 0.00 | 0.00 | 0.00 | 84 | 1016.1 |
| 20260901000531 | 70 | 210 | 0.0 | 1.0 | 0.00 | 0.00 | 0.00 | 84 | 1016.1 |
| 20260901000023 | 70 | 210 | 0.0 | 2.0 | 0.00 | 0.00 | 0.00 | 83 | 1016.2 |
| 20260831235528 | 70 | 210 | 1.0 | 2.0 | 0.00 | 0.00 | 0.00 | 83 | 1016.1 |
| 20260831235013 | 70 | 210 | 0.0 | 2.0 | 0.00 | 0.00 | 0.00 | 83 | 1016.0 |
| 20260831234516 | 70 | 210 | 1.0 | 2.0 | 0.00 | 0.00 | 0.00 | 83 | 1015.9 |
| 20260831234019 | 70 | 210 | 1.0 | 4.0 | 0.00 | 0.00 | 0.00 | 83 | 1015.9 |
| 20260831233522 | 70 | 210 | 0.0 | 4.0 | 0.00 | 0.00 | 0.00 | 83 | 1015.7 |
| 20260831233013 | 70 | 210 | 0.0 | 2.0 | 0.00 | 0.00 | 0.00 | 84 | 1015.7 |
| 20260831232538 | 70 | 210 | 0.0 | 1.0 | 0.00 | 0.00 | 0.00 | 84 | 1015.7 |
| 20260831232017 | 70 | 210 | 0.0 | 2.0 | 0.00 | 0.00 | 0.00 | 84 | 1015.6 |
| 20260831231521 | 70 | 210 | 0.0 | 2.0 | 0.00 | 0.00 | 0.00 | 84 | 1015.3 |
| 20260831231021 | 70 | 210 | 0.0 | 3.0 | 0.00 | 0.00 | 0.00 | 84 | 1015.3 |
| 20260831230524 | 70 | 210 | 0.0 | 3.0 | 0.00 | 0.00 | 0.00 | 85 | 1015.3 |
| 20260831230018 | 69 | 210 | 0.0 | 1.0 | 0.00 | 0.00 | 0.00 | 85 | 1015.3 |
| 20260831225522 | 69 | 210 | 0.0 | 1.0 | 0.00 | 0.00 | 0.00 | 85 | 1015.4 |
| 20260831225024 | 69 | 210 | 0.0 | 2.0 | 0.00 | 0.00 | 0.00 | 85 | 1015.2 |
| 20260831224527 | 69 | 210 | 0.0 | 4.0 | 0.00 | 0.00 | 0.00 | 85 | 1015.1 |
| 20260831224029 | 69 | 210 | 1.0 | 3.0 | 0.00 | 0.00 | 0.00 | 85 | 1015.0 |
| 20260831223513 | 69 | 210 | 1.0 | 3.0 | 0.00 | 0.00 | 0.00 | 85 | 1015.0 |
| 20260831223028 | 69 | 210 | 0.0 | 2.0 | 0.00 | 0.00 | 0.00 | 84 | 1015.0 |
| 20260831222515 | 69 | 210 | 0.0 | 1.0 | 0.00 | 0.00 | 0.00 | 84 | 1014.9 |
| 20260831222015 | 69 | 210 | 0.0 | 2.0 | 0.00 | 0.00 | 0.00 | 84 | 1014.8 |
| 20260831221520 | 69 | 210 | 0.0 | 2.0 | 0.00 | 0.00 | 0.00 | 84 | 1014.7 |
| 20260831221020 | 69 | 210 | 0.0 | 3.0 | 0.00 | 0.00 | 0.00 | 84 | 1014.6 |
| 20260831220523 | 69 | 210 | 2.0 | 3.0 | 0.00 | 0.00 | 0.00 | 83 | 1014.7 |
| 20260831220014 | 69 | 210 | 0.0 | 1.0 | 0.00 | 0.00 | 0.00 | 84 | 1014.9 |
| 20260831215518 | 69 | 210 | 0.0 | 1.0 | 0.00 | 0.00 | 0.00 | 85 | 1014.9 |
| 20260831215017 | 69 | 210 | 0.0 | 4.0 | 0.00 | 0.00 | 0.00 | 85 | 1015.1 |
| 20260831214521 | 69 | 210 | 1.0 | 4.0 | 0.00 | 0.00 | 0.00 | 85 | 1015.0 |
| 20260831214041 | 68 | 210 | 0.0 | 3.0 | 0.00 | 0.00 | 0.00 | 85 | 1014.9 |
| 20260831213523 | 68 | 210 | 1.0 | 3.0 | 0.00 | 0.00 | 0.00 | 85 | 1015.0 |
| 20260831213055 | 68 | 210 | 0.0 | 1.0 | 0.00 | 0.00 | 0.00 | 85 | 1014.8 |
| 20260831212517 | 68 | 210 | 0.0 | 3.0 | 0.00 | 0.00 | 0.00 | 85 | 1014.8 |
| 20260831212017 | 68 | 210 | 0.0 | 1.0 | 0.00 | 0.00 | 0.00 | 84 | 1014.7 |
| 20260831211543 | 68 | 210 | 0.0 | 1.0 | 0.00 | 0.00 | 0.00 | 84 | 1014.6 |
| 20260831211020 | 68 | 210 | 1.0 | 1.0 | 0.00 | 0.00 | 0.00 | 84 | 1014.5 |
| 20260831210523 | 68 | 210 | 0.0 | 1.0 | 0.00 | 0.00 | 0.00 | 84 | 1014.5 |
| 20260831210037 | 69 | 210 | 0.0 | 1.0 | 0.00 | 0.00 | 0.00 | 84 | 1014.5 |
| 20260831205525 | 69 | 210 | 0.0 | 1.0 | 0.00 | 0.00 | 0.00 | 84 | 1014.6 |
| 20260831205025 | 69 | 210 | 0.0 | 1.0 | 0.00 | 0.00 | 0.00 | 84 | 1014.4 |
| 20260831204528 | 69 | 210 | 0.0 | 1.0 | 0.00 | 0.00 | 0.00 | 83 | 1014.3 |
| 20260831204028 | 69 | 210 | 0.0 | 3.0 | 0.00 | 0.00 | 0.00 | 83 | 1014.3 |
| 20260831203531 | 69 | 210 | 1.0 | 3.0 | 0.00 | 0.00 | 0.00 | 83 | 1014.3 |
| 20260831203024 | 69 | 210 | 0.0 | 2.0 | 0.00 | 0.00 | 0.00 | 84 | 1014.4 |
| 20260831202548 | 69 | 210 | 0.0 | 0.0 | 0.00 | 0.00 | 0.00 | 83 | 1014.3 |
| 20260831202028 | 69 | 210 | 0.0 | 0.0 | 0.00 | 0.00 | 0.00 | 83 | 1014.1 |
| 20260831201533 | 69 | 210 | 0.0 | 0.0 | 0.00 | 0.00 | 0.00 | 83 | 1014.2 |
| 20260831201014 | 69 | 210 | 0.0 | 1.0 | 0.00 | 0.00 | 0.00 | 82 | 1014.1 |
| 20260831200517 | 70 | 210 | 0.0 | 1.0 | 0.00 | 0.00 | 0.00 | 82 | 1014.1 |
| 20260831200050 | 70 | 210 | 0.0 | 1.0 | 0.00 | 0.00 | 0.00 | 82 | 1014.1 |
| 20260831195514 | 70 | 210 | 0.0 | 1.0 | 0.00 | 0.00 | 0.00 | 83 | 1014.2 |
| 20260831195034 | 70 | 210 | 0.0 | 1.0 | 0.00 | 0.00 | 0.00 | 82 | 1014.3 |
| 20260831194522 | 70 | 210 | 0.0 | 0.0 | 0.00 | 0.00 | 0.00 | 82 | 1014.2 |
| 20260831194024 | 70 | 210 | 0.0 | 1.0 | 0.00 | 0.00 | 0.00 | 81 | 1014.0 |
| 20260831193528 | 71 | 210 | 0.0 | 1.0 | 0.00 | 0.00 | 0.00 | 81 | 1013.9 |
| 20260831193040 | 71 | 210 | 0.0 | 1.0 | 0.00 | 0.00 | 0.00 | 80 | 1013.8 |
| 20260831192523 | 71 | 210 | 0.0 | 1.0 | 0.00 | 0.00 | 0.00 | 80 | 1013.6 |
| 20260831192023 | 71 | 210 | 0.0 | 0.0 | 0.00 | 0.00 | 0.00 | 80 | 1013.5 |
| 20260831191527 | 71 | 210 | 0.0 | 0.0 | 0.00 | 0.00 | 0.00 | 80 | 1013.4 |
| 20260831191027 | 72 | 210 | 0.0 | 0.0 | 0.00 | 0.00 | 0.00 | 79 | 1013.4 |
| 20260831190528 | 72 | 210 | 0.0 | 0.0 | 0.00 | 0.00 | 0.00 | 80 | 1013.4 |
| 20260831190020 | 72 | 210 | 0.0 | 0.0 | 0.00 | 0.00 | 0.00 | 78 | 1013.3 |